Other Public Products
Issued by NWS Grand Forks, ND

Home | Current Version | Previous Version | Text Only | Print | Product List | Glossary Off
Versions: 1 2 3 4 5 6 7 8 9 10 11 12 13 14 15 16 17 18 19 20 21 22 23 24 25 26 27 28 29 30 31 32 33 34 35 36 37 38 39 40 41 42 43 44 45 46 47 48 49 50

000
FPUS83 KFGF 231410
OPUFGF
PRAIRIE TO PINES WEATHER ROUNDUP
NATIONAL WEATHER SERVICE EASTERN NORTH DAKOTA/GRAND FORKS ND
900 AM CDT WED APR 23 2014

 **SATELLITE DATA USED TO AUGMENT SKY COVER AT AUTOMATED STATIONS**
 *****  WEATHER ACROSS EASTERN NORTH DAKOTA  *****

CITY           SKY/WX    TMP DP  RH WIND       PRES   REMARKS
GRAND FORKS    CLOUDY    47  30  51 SE20      29.89F
GRAND FORKS AF CLOUDY    47  31  53 SE18G24   29.88F
GRAND CITY NWS   N/A     48 N/A N/A SE23        N/A
BUXTON         NOT AVBL
DEVILS LAKE    CLOUDY    39  34  81 SE18      29.79R
FARGO          LGT RAIN  45  37  73 SE21G39   29.91F
WAHPETON ARPT  CLOUDY    41  37  87 SE23G31   29.92F
$$

 *****  WEATHER ACROSS CENTRAL AND WESTERN NORTH DAKOTA  *****

CITY           SKY/WX    TMP DP  RH WIND       PRES   REMARKS
JAMESTOWN      CLOUDY    45  41  86 SE26G32   29.76R
BISMARCK       CLOUDY    51  39  63 SE23G29   29.59F
MINOT          LGT RAIN  47  42  83 E24G38    29.60F
MINOT AFB      DRIZZLE   47  47  99 SE23G29   29.62S
GARRISON         N/A     48  40  73 SE32G43   29.56F
WILLISTON      PTSUNNY   51  39  63 SE28G37   29.45R
DICKINSON      CLOUDY    50  36  58 SE20G28   29.42F
HETTINGER      CLOUDY    52  34  50 SE21G30   29.46R
$$

 *****  OTHER OBSERVATIONS NORTHEAST NORTH DAKOTA  *****

CITY           SKY/WX    TMP DP  RH WIND       PRES   REMARKS
WALHALLA       FAIR      41  32  70 SE13G18   29.89F
LANGDON        PTSUNNY   43  30  61 SE23G30   29.83F
CAVALIER       FAIR      43  32  65 SE10      29.90F
GRAFTON        FAIR      45  30  57 SE17      29.90F
CANDO          CLOUDY    43  36  75 SE23      29.77F
FORT TOTTEN      N/A     41  38  90 SE12      29.95S
ROLLA          CLOUDY    41  32  70 SE24G31   29.77F
RUGBY          LGT RAIN  41  39  93 SE20G26   29.70F
 ***** THE ABOVE OBSERVATIONS ARE NON NWS ARE NOT QUALITY
        CONTROLLED AND MAY MIS-REPORT RAIN FOR SNOW...
$$

 *****  OTHER OBSERVATIONS SOUTHEAST NORTH DAKOTA *****

CITY           SKY/WX    TMP DP  RH WIND       PRES   REMARKS
COOPERSTOWN    CLOUDY    41  41 100 SE20G30   29.82F FOG
VALLEY CITY    CLOUDY    45  45 100 SE22G37   29.80F
OAKES          CLOUDY    46  41  81 SE29G37   29.79F
GWINNER        CLOUDY    45  43  93 SE24G35   29.84F
SHEYENNE NWR     N/A     44  44  99 SE14      29.95
BUFFALO        NOT AVBL
WYNDMERE       NOT AVBL
 ***** THE ABOVE OBSERVATIONS ARE NON NWS ARE NOT QUALITY
       CONTROLLED AND MAY MIS-REPORT RAIN FOR SNOW...
$$

  *****  WEATHER ACROSS NORTHERN MINNESOTA  *****

CITY           SKY/WX    TMP DP  RH WIND       PRES   REMARKS
FLAG ISLAND    MOSUNNY   39  23  52 SE7       30.04F
WARROAD        CLOUDY    39  28  65 E7        30.02F
ROSEAU         CLOUDY    45  27  49 SE9       30.00S
HALLOCK          N/A     46  27  46 SE16      29.93F
THF RVR FALLS  CLOUDY    45  25  45 SE13      29.96F
HALSTAD          N/A     45  30  56 SE17        N/A
FOSSTON        CLOUDY    46  21  36 SE14G20   29.96F
BAUDETTE       CLOUDY    42  25  50 SE8       30.04F
WASKISH        CLOUDY    43  27  52 SE7       30.04F
CROOKSTON      CLOUDY    48  28  46 SE16      29.93F
$$
  *****  WEATHER ACROSS CENTRAL AND WEST MINNESOTA  *****

CITY           SKY/WX    TMP DP  RH WIND       PRES   REMARKS
BEMIDJI        CLOUDY    41  25  51 SE14      30.02S
PARK RAPIDS    CLOUDY    44  25  47 SE13      30.01R
WADENA         CLOUDY    43  27  52 SE16      30.00S
DETROIT LAKES  DRIZZLE   45  30  57 S15       29.97F
MOORHEAD       RAIN      45  41  87 SE24G31   29.92F
FERGUS FALLS   RAIN      41  36  81 SE17G26   29.94F
ELBOW LAKE     RAIN      40  37  89 SE17G23   29.98S
MORRIS MN      RAIN      41  39  93 SE24G30   29.94F
STAPLES        CLOUDY    45  25  45 SE10      30.03S
WHEATON        LGT RAIN  45  43  93 SE25G32   29.94F
$$
  *****  WEATHER ELSEWHERE ACROSS MINNESOTA  *****

CITY           SKY/WX    TMP DP  RH WIND       PRES   REMARKS
DULUTH         CLOUDY    38  26  62 E10       30.11S
INTRNTL FALLS  PTSUNNY   44  24  45 SE7       30.08F
ELY            PTSUNNY   43  25  49 S3        30.11F
CLOQUET        CLOUDY    36  27  69 E5        30.11S
BRAINERD       CLOUDY    49  26  41 S8        30.07R
HIBBING        CLOUDY    40  27  59 SE8       30.10F
ALEXANDRIA     LGT RAIN  41  34  76 SE10      30.02R
SAINT CLOUD    CLOUDY    46  26  45 SE12G20   30.05S
MINNEAPOLIS    CLOUDY    44  28  53 SE14      30.09F
$$

  *****  WEATHER ACROSS SOUTH DAKOTA  *****

CITY           SKY/WX    TMP DP  RH WIND       PRES   REMARKS
SIOUX FALLS    CLOUDY    50  35  56 SE24G41   29.83F
BROOKINGS      NOT AVBL
WATERTOWN      CLOUDY    46  38  73 SE17G30   29.84S
HURON          CLOUDY    55  34  45 SE21G37   29.71F
SISSETON         N/A     43  39  86 SE21      29.88F
ABERDEEN       LGT RAIN  49  38  65 SE22G31   29.76F
MITCHELL       CLOUDY    54  36  50 SE32G53   29.70F
PIERRE         CLOUDY    53  35  50 SE26      29.55S
MOBRIDGE       CLOUDY    51  37  58 SE35G45   29.55S
RAPID CITY     CLOUDY    56  45  66 E5        29.45R
$$

  *****  SOME WEATHER IN NEARBY STATES *****

CITY           SKY/WX    TMP DP  RH WIND       PRES   REMARKS
GLASGOW MT     RAIN      44  41  89 W24G39    29.48R FOG
GREAT FALLS MT MOSUNNY   38  26  62 SW16      29.65R
CHEYENNE WY    PTSUNNY   48  32  53 NW23G37   29.68R
SCOTTSBLUFF NE CLOUDY    56  40  55 W17       29.59R
OMAHA NE       LGT RAIN  49  40  71 SE23      29.91F
DES MOINES IA  CLOUDY    51  32  48 SE12      30.05F
DAVENPORT IA   PTSUNNY   44  29  55 SE14      30.17R
CHICAGO IL     MOSUNNY   42  25  50 NE15      30.18R
EAU CLAIRE WI  CLOUDY    44  26  49 S14       30.15R
LA CROSSE WI   PTSUNNY   46  27  47 S13       30.16S
$$

  *****  SOME NATIONAL WEATHER *****

CITY           SKY/WX    TMP DP  RH WIND       PRES   REMARKS
LA GUARDIA NY  PTSUNNY   51  34  52 NW24G30   29.58S
RALEIGH NC     MOSUNNY   63  31  30 N10G17    29.85R
ATLANTA GA     MOSUNNY   62  46  55 NW10      29.96R
NEW ORLEANS LA SUNNY     72  63  73 NE8       29.98S
OKLAHOMA CITY  MOSUNNY   66  49  54 S15       29.90S
ALBUQUERQUE NM MOSUNNY   61  26  26 SW7       29.89R
SALT LAKE CITY PTSUNNY   41  28  60 NW9       29.99R
LOS ANGELES CA MOCLDY    58  50  75 E6        29.95R
BOISE ID       SUNNY     36  31  82 E5        30.01R
SEATTLE WA     MOCLDY    44  40  85 S14       29.91R
$$

*** WEATHER ACROSS MANITOBA...SASKATCHEWAN AND ONTARIO ***
                ***ONTARIO***

CITY           SKY/WX    TMP DP  RH WIND       PRES   REMARKS
GERALDTON      PTSUNNY   39  27  60 W7        30.13S
THUNDER BAY    MOSUNNY   39  28  65 VRB3      30.17F
SIOUX LOOKOUT  MOSUNNY   41  23  48 CALM      30.12S
TORONTO        PTSUNNY   39  27  60 N22G32    29.92R
BIG TROUT LK   PTSUNNY   39  18  41 VRB2      30.14S
PICKLE LAKE    PTSUNNY   37  19  48 SE5       30.11S
DRYDEN         SUNNY     43  19  39 S6        30.10S
KENORA         PTSUNNY   43  23  45 S12       30.07F
$$
                *** MANITOBA***

CITY           SKY/WX    TMP DP  RH WIND       PRES   REMARKS
BRANDON        CLOUDY    41  34  75 E16G22    29.83F
DAUPHIN        SUNNY     39  32  75 E12G18    29.87F
ISLAND LAKE    MOSUNNY   39  36  87 E5        30.08F
PILOT MOUND      N/A     43  34  70 SE23G30     N/A
THE PAS        CLOUDY    39  28  65 E10         N/A
THOMPSON       SUNNY     28  23  80 NE12      30.16R WCI  18
WINNIPEG       CLOUDY    45  25  45 SE13G20   29.96F
LYNN LAKE      SUNNY     25  19  80 NE12      30.17R WCI  14
CHURCHILL      CLOUDY    21  18  86 NW16      30.29S WCI   7
GILLAM         PTSUNNY   28  25  86 NE7       30.21S WCI  21
$$
                ***SASKATCHEWAN***

CITY           SKY/WX    TMP DP  RH WIND       PRES   REMARKS
ESTEVAN        CLOUDY    48  41  76 SE28G35   29.53S
KINDERSLEY     LGT RAIN  43  39  87 E21       29.40F
LLOYDMINSTER   CLOUDY    45  34  65 SE23G36   29.46F
PRINCE ALBERT  CLOUDY    43  34  70 E16       29.72S
REGINA         LGT RAIN  45  37  76 SE20G29   29.56R



USA.gov is the U.S. government's official web portal to all federal, state and local government web resources and services.